Terminal Aerodrome Forecast
Issued by NWS St Louis, MO

Home | Current Version | Previous Version | Text Only | Print | Product List | Glossary On
Versions: 1 2 3 4 5 6 7 8 9 10 11 12 13 14 15 16 17 18 19 20 21 22 23 24 25 26 27 28 29
000
FTUS43 KLSX 020319 AAA
TAFSTL
TAF AMD
KSTL 020319Z 0203/0306 09005KT P6SM VCTS BKN050CB
     FM020700 VRB04KT 4SM BR VCSH OVC030
     FM020900 03006KT 3SM BR VCSH OVC010
     FM021500 01007KT 6SM BR OVC020
     FM022100 35007KT P6SM BKN035=

USA.gov is the U.S. government's official web portal to all federal, state and local government web resources and services.